EROS B

Last updated on Wed Sep 17 2025 00:02:30 GMT+0000 (Coordinated Universal Time)

1 29079U 06014A 25259.62857257 .00054167 00000+0 10485-2 0 9995 2 29079 97.3504 13.6250 0002477 63.3368 296.8136 15.47556222 77258
UTC large
Height (km)
Speed (km/s)
/
Latitude / Longitude
Inclination (degrees)
Orbital Period (minutes)
Azimuth
Elevation
Range (km)
Doppler Factor

Next 0 passes for location: London (51.5072 / 0.1276)

Sorry there are no passes over London.